| time (UTC) | temp F | wind direction | speed knots | gust knots | rain 1hr in | rain 24hr in | rain mn in | humidity % | barometer mb |
| 20260510220522 | 69 | 30 | 5.2 | 12.2 | 0.00 | 0.11 | 0.11 | 29 | 1024.0 |
| 20260510220046 | 69 | 65 | 6.1 | 12.2 | 0.00 | 0.11 | 0.11 | 31 | 1024.0 |
| 20260510215522 | 69 | 96 | 7.0 | 12.2 | 0.00 | 0.11 | 0.11 | 30 | 1024.0 |
| 20260510215022 | 68 | 62 | 2.6 | 9.6 | 0.00 | 0.11 | 0.11 | 29 | 1024.1 |
| 20260510214542 | 68 | 88 | 2.6 | 9.6 | 0.00 | 0.11 | 0.11 | 29 | 1024.1 |
| 20260510214022 | 69 | 47 | 5.2 | 9.6 | 0.00 | 0.11 | 0.11 | 29 | 1024.2 |
| 20260510213521 | 68 | 29 | 3.5 | 8.7 | 0.00 | 0.11 | 0.11 | 28 | 1024.1 |
| 20260510213057 | 68 | 51 | 3.5 | 9.6 | 0.00 | 0.11 | 0.11 | 29 | 1024.0 |
| 20260510212522 | 68 | 87 | 3.5 | 10.4 | 0.00 | 0.11 | 0.11 | 29 | 1024.2 |
| 20260510212021 | 67 | 100 | 4.3 | 10.4 | 0.00 | 0.11 | 0.11 | 29 | 1024.1 |
| 20260510211545 | 67 | 78 | 6.1 | 9.6 | 0.00 | 0.11 | 0.11 | 28 | 1024.2 |
| 20260510211022 | 67 | 55 | 3.5 | 10.4 | 0.00 | 0.11 | 0.11 | 30 | 1024.4 |
| 20260510210523 | 67 | 40 | 6.1 | 10.4 | 0.00 | 0.11 | 0.11 | 31 | 1024.4 |
| 20260510210040 | 67 | 71 | 4.3 | 9.6 | 0.00 | 0.11 | 0.11 | 31 | 1024.4 |
| 20260510205522 | 67 | 60 | 3.5 | 13.9 | 0.00 | 0.11 | 0.11 | 31 | 1024.5 |
| 20260510205023 | 67 | 89 | 5.2 | 13.9 | 0.00 | 0.11 | 0.11 | 30 | 1024.6 |
| 20260510204540 | 67 | 93 | 8.7 | 12.2 | 0.00 | 0.11 | 0.11 | 32 | 1024.5 |
| 20260510204025 | 67 | 102 | 5.2 | 13.9 | 0.00 | 0.11 | 0.11 | 29 | 1024.6 |
| 20260510203521 | 67 | 72 | 7.8 | 13.9 | 0.00 | 0.11 | 0.11 | 30 | 1024.8 |
| 20260510203044 | 66 | 47 | 7.0 | 16.5 | 0.00 | 0.11 | 0.11 | 32 | 1024.8 |
| 20260510202522 | 66 | 69 | 7.8 | 16.5 | 0.00 | 0.11 | 0.11 | 33 | 1024.8 |
| 20260510202022 | 67 | 42 | 9.6 | 16.5 | 0.00 | 0.11 | 0.11 | 33 | 1024.9 |
| 20260510201550 | 66 | 49 | 9.6 | 16.5 | 0.00 | 0.11 | 0.11 | 34 | 1025.0 |
| 20260510201025 | 66 | 40 | 8.7 | 15.6 | 0.00 | 0.11 | 0.11 | 35 | 1024.9 |
| 20260510200521 | 66 | 47 | 10.4 | 15.6 | 0.00 | 0.11 | 0.11 | 34 | 1025.0 |
| 20260510200041 | 66 | 69 | 7.0 | 15.6 | 0.00 | 0.11 | 0.11 | 36 | 1025.0 |
| 20260510195523 | 66 | 67 | 8.7 | 15.6 | 0.00 | 0.11 | 0.11 | 35 | 1024.8 |
| 20260510195021 | 66 | 74 | 10.4 | 15.6 | 0.00 | 0.11 | 0.11 | 35 | 1024.8 |
| 20260510194542 | 66 | 44 | 10.4 | 15.6 | 0.00 | 0.11 | 0.11 | 36 | 1024.8 |
| 20260510194026 | 65 | 73 | 9.6 | 16.5 | 0.00 | 0.11 | 0.11 | 37 | 1024.8 |
| 20260510193522 | 65 | 67 | 10.4 | 16.5 | 0.00 | 0.11 | 0.11 | 36 | 1024.9 |
| 20260510193043 | 65 | 52 | 8.7 | 17.4 | 0.00 | 0.11 | 0.11 | 38 | 1024.7 |
| 20260510192522 | 65 | 58 | 13.0 | 17.4 | 0.00 | 0.11 | 0.11 | 37 | 1024.7 |
| 20260510192021 | 65 | 45 | 8.7 | 17.4 | 0.00 | 0.11 | 0.11 | 39 | 1024.7 |
| 20260510191551 | 64 | 76 | 7.0 | 15.6 | 0.00 | 0.11 | 0.11 | 40 | 1024.7 |
| 20260510191023 | 64 | 32 | 10.4 | 15.6 | 0.00 | 0.11 | 0.11 | 41 | 1024.7 |
| 20260510190520 | 64 | 54 | 10.4 | 15.6 | 0.00 | 0.11 | 0.11 | 41 | 1024.9 |
| 20260510190055 | 64 | 35 | 9.6 | 14.8 | 0.00 | 0.11 | 0.11 | 42 | 1025.0 |
| 20260510185523 | 63 | 55 | 9.6 | 13.9 | 0.00 | 0.11 | 0.11 | 42 | 1025.0 |
| 20260510185023 | 63 | 65 | 7.8 | 14.8 | 0.00 | 0.11 | 0.11 | 43 | 1025.0 |
| 20260510184541 | 63 | 54 | 9.6 | 15.6 | 0.00 | 0.11 | 0.11 | 45 | 1025.0 |
| 20260510184025 | 64 | 36 | 12.2 | 15.6 | 0.00 | 0.11 | 0.11 | 44 | 1025.2 |
| 20260510183527 | 65 | 16 | 7.8 | 17.4 | 0.00 | 0.11 | 0.11 | 47 | 1025.2 |
| 20260510183042 | 63 | 17 | 10.4 | 17.4 | 0.00 | 0.11 | 0.11 | 47 | 1025.1 |
| 20260510182521 | 62 | 69 | 10.4 | 17.4 | 0.00 | 0.11 | 0.11 | 47 | 1025.0 |
| 20260510182021 | 63 | 90 | 9.6 | 15.6 | 0.00 | 0.11 | 0.11 | 50 | 1025.1 |
| 20260510181544 | 62 | 66 | 11.3 | 16.5 | 0.00 | 0.11 | 0.11 | 48 | 1025.0 |
| 20260510181022 | 61 | 61 | 10.4 | 16.5 | 0.00 | 0.11 | 0.11 | 49 | 1025.2 |
| 20260510180523 | 61 | 61 | 9.6 | 13.9 | 0.00 | 0.11 | 0.11 | 49 | 1025.1 |
| 20260510180052 | 61 | 57 | 8.7 | 17.4 | 0.00 | 0.11 | 0.11 | 49 | 1025.4 |
| 20260510175522 | 62 | 37 | 10.4 | 17.4 | 0.00 | 0.11 | 0.11 | 51 | 1025.3 |
| 20260510175022 | 62 | 40 | 9.6 | 14.8 | 0.00 | 0.11 | 0.11 | 51 | 1025.1 |
| 20260510174542 | 62 | 44 | 9.6 | 14.8 | 0.00 | 0.11 | 0.11 | 50 | 1025.1 |
| 20260510174024 | 61 | 38 | 8.7 | 13.9 | 0.00 | 0.11 | 0.11 | 53 | 1025.2 |
| 20260510173526 | 60 | 62 | 8.7 | 13.9 | 0.00 | 0.11 | 0.11 | 56 | 1025.2 |
| 20260510173047 | 60 | 67 | 7.8 | 13.9 | 0.00 | 0.11 | 0.11 | 56 | 1025.1 |
| 20260510172521 | 59 | 61 | 8.7 | 14.8 | 0.00 | 0.11 | 0.11 | 58 | 1025.0 |
| 20260510172021 | 59 | 66 | 7.8 | 14.8 | 0.00 | 0.11 | 0.11 | 60 | 1025.1 |
| 20260510171544 | 58 | 69 | 9.6 | 14.8 | 0.00 | 0.11 | 0.11 | 61 | 1025.2 |
| 20260510171049 | 57 | 59 | 7.8 | 12.2 | 0.00 | 0.11 | 0.11 | 63 | 1025.0 |
| 20260510170529 | 57 | 57 | 7.0 | 13.0 | 0.00 | 0.11 | 0.11 | 63 | 1025.2 |
| 20260510170040 | 57 | 64 | 8.7 | 13.0 | 0.00 | 0.11 | 0.11 | 63 | 1025.2 |
| 20260510165521 | 58 | 44 | 7.8 | 13.9 | 0.00 | 0.11 | 0.11 | 65 | 1025.2 |
| 20260510165021 | 57 | 55 | 9.6 | 14.8 | 0.00 | 0.11 | 0.11 | 67 | 1025.2 |
| 20260510164601 | 57 | 65 | 10.4 | 14.8 | 0.00 | 0.11 | 0.11 | 68 | 1025.2 |
| 20260510164022 | 56 | 40 | 7.8 | 14.8 | 0.00 | 0.11 | 0.11 | 71 | 1025.2 |
| 20260510163522 | 56 | 59 | 7.8 | 14.8 | 0.00 | 0.11 | 0.11 | 72 | 1025.1 |
| 20260510163104 | 55 | 49 | 10.4 | 13.9 | 0.00 | 0.11 | 0.11 | 71 | 1025.1 |
| 20260510162521 | 55 | 39 | 9.6 | 13.0 | 0.00 | 0.11 | 0.11 | 74 | 1025.0 |
| 20260510162023 | 55 | 46 | 7.0 | 13.0 | 0.00 | 0.11 | 0.11 | 77 | 1025.2 |
| 20260510161543 | 54 | 48 | 7.8 | 13.0 | 0.00 | 0.11 | 0.11 | 76 | 1024.9 |
| 20260510161022 | 54 | 34 | 8.7 | 12.2 | 0.00 | 0.11 | 0.11 | 77 | 1024.8 |
| 20260510160522 | 53 | 63 | 7.8 | 13.9 | 0.00 | 0.11 | 0.11 | 80 | 1024.7 |
| 20260510160045 | 52 | 74 | 8.7 | 14.8 | 0.00 | 0.11 | 0.11 | 78 | 1024.6 |
| 20260510155521 | 52 | 36 | 8.7 | 14.8 | 0.01 | 0.11 | 0.11 | 80 | 1024.4 |
| 20260510155021 | 51 | 58 | 9.6 | 15.6 | 0.01 | 0.11 | 0.11 | 80 | 1024.3 |
| 20260510154540 | 50 | 65 | 8.7 | 15.6 | 0.01 | 0.11 | 0.11 | 81 | 1024.0 |
| 20260510154021 | 50 | 50 | 10.4 | 15.6 | 0.02 | 0.11 | 0.11 | 81 | 1024.0 |
| 20260510153523 | 50 | 53 | 9.6 | 15.6 | 0.02 | 0.11 | 0.11 | 82 | 1024.0 |
| 20260510153055 | 49 | 61 | 11.3 | 15.6 | 0.02 | 0.11 | 0.11 | 83 | 1024.0 |
| 20260510152522 | 49 | 45 | 8.7 | 13.9 | 0.02 | 0.11 | 0.11 | 83 | 1023.8 |
| 20260510152022 | 49 | 45 | 8.7 | 13.9 | 0.02 | 0.11 | 0.11 | 84 | 1023.5 |
| 20260510151542 | 48 | 49 | 9.6 | 13.9 | 0.03 | 0.11 | 0.11 | 84 | 1023.4 |
| 20260510151022 | 48 | 44 | 8.7 | 13.0 | 0.03 | 0.11 | 0.11 | 84 | 1023.5 |
| 20260510150525 | 48 | 57 | 7.8 | 13.0 | 0.04 | 0.11 | 0.11 | 84 | 1023.6 |
| 20260510150051 | 48 | 47 | 8.7 | 13.9 | 0.06 | 0.11 | 0.11 | 84 | 1023.9 |
| 20260510145521 | 48 | 39 | 8.7 | 16.5 | 0.07 | 0.10 | 0.10 | 84 | 1023.9 |
| 20260510145022 | 47 | 49 | 9.6 | 16.5 | 0.09 | 0.10 | 0.10 | 84 | 1023.8 |
| 20260510144547 | 47 | 69 | 11.3 | 17.4 | 0.10 | 0.10 | 0.10 | 84 | 1023.2 |
| 20260510144022 | 47 | 69 | 11.3 | 17.4 | 0.09 | 0.09 | 0.09 | 84 | 1022.9 |
| 20260510143522 | 47 | 60 | 12.2 | 17.4 | 0.09 | 0.09 | 0.09 | 84 | 1023.1 |
| 20260510143056 | 47 | 36 | 10.4 | 16.5 | 0.09 | 0.09 | 0.09 | 84 | 1023.4 |
| 20260510142523 | 47 | 46 | 10.4 | 17.4 | 0.09 | 0.09 | 0.09 | 84 | 1023.1 |
| 20260510142022 | 47 | 51 | 12.2 | 17.4 | 0.09 | 0.09 | 0.09 | 84 | 1023.0 |
| 20260510141540 | 47 | 30 | 12.2 | 17.4 | 0.08 | 0.08 | 0.08 | 83 | 1023.3 |
| 20260510141022 | 47 | 34 | 11.3 | 17.4 | 0.08 | 0.08 | 0.08 | 83 | 1023.6 |
| 20260510140520 | 47 | 36 | 12.2 | 18.2 | 0.06 | 0.06 | 0.06 | 83 | 1023.5 |
| 20260510140036 | 48 | 26 | 13.0 | 19.1 | 0.05 | 0.05 | 0.05 | 83 | 1023.8 |
| 20260510135523 | 48 | 26 | 11.3 | 20.0 | 0.03 | 0.03 | 0.03 | 82 | 1024.0 |
| 20260510135021 | 48 | 18 | 13.9 | 21.7 | 0.01 | 0.01 | 0.01 | 82 | 1024.3 |
| 20260510134542 | 49 | 360 | 13.9 | 21.7 | 0.00 | 0.00 | 0.00 | 81 | 1024.0 |
| 20260510134022 | 49 | 5 | 13.9 | 20.9 | 0.00 | 0.00 | 0.00 | 80 | 1023.7 |
| 20260510133519 | 49 | 348 | 14.8 | 20.9 | 0.00 | 0.00 | 0.00 | 79 | 1023.5 |
| 20260510133044 | 49 | 360 | 14.8 | 20.9 | 0.00 | 0.00 | 0.00 | 78 | 1023.6 |
| 20260510132524 | 49 | 13 | 12.2 | 20.0 | 0.00 | 0.00 | 0.00 | 78 | 1023.3 |
| 20260510132022 | 49 | 11 | 13.9 | 20.9 | 0.00 | 0.00 | 0.00 | 78 | 1023.1 |
| 20260510131549 | 50 | 344 | 13.9 | 20.9 | 0.00 | 0.00 | 0.00 | 79 | 1022.8 |
| 20260510131020 | 50 | 15 | 14.8 | 20.9 | 0.00 | 0.00 | 0.00 | 79 | 1022.7 |
| 20260510130521 | 50 | 360 | 14.8 | 20.9 | 0.00 | 0.00 | 0.00 | 79 | 1022.6 |
| 20260510130041 | 50 | 15 | 13.9 | 20.0 | 0.00 | 0.00 | 0.00 | 78 | 1022.5 |
| 20260510125520 | 51 | 19 | 13.9 | 19.1 | 0.00 | 0.00 | 0.00 | 77 | 1022.4 |
| 20260510125021 | 51 | 15 | 13.0 | 18.2 | 0.00 | 0.00 | 0.00 | 76 | 1022.4 |
| 20260510124547 | 51 | 19 | 13.0 | 19.1 | 0.00 | 0.00 | 0.00 | 75 | 1022.4 |
| 20260510124025 | 51 | 16 | 12.2 | 19.1 | 0.00 | 0.00 | 0.00 | 74 | 1022.1 |
| 20260510123522 | 51 | 19 | 13.9 | 19.1 | 0.00 | 0.00 | 0.00 | 73 | 1022.0 |
| 20260510123042 | 52 | 25 | 13.0 | 19.1 | 0.00 | 0.00 | 0.00 | 73 | 1022.0 |
| 20260510122521 | 52 | 12 | 13.9 | 19.1 | 0.00 | 0.00 | 0.00 | 72 | 1021.7 |
| 20260510122023 | 52 | 17 | 12.2 | 18.2 | 0.00 | 0.00 | 0.00 | 71 | 1021.8 |
| 20260510121540 | 52 | 10 | 11.3 | 17.4 | 0.00 | 0.00 | 0.00 | 69 | 1021.6 |
| 20260510121022 | 52 | 22 | 12.2 | 17.4 | 0.00 | 0.00 | 0.00 | 68 | 1021.6 |
| 20260510120522 | 52 | 16 | 11.3 | 17.4 | 0.00 | 0.00 | 0.00 | 66 | 1021.4 |
| 20260510120041 | 53 | 19 | 12.2 | 20.9 | 0.00 | 0.00 | 0.00 | 64 | 1021.4 |
| 20260510115521 | 53 | 22 | 13.0 | 20.9 | 0.00 | 0.00 | 0.00 | 63 | 1021.1 |
| 20260510115022 | 53 | 19 | 13.0 | 24.3 | 0.00 | 0.00 | 0.00 | 64 | 1021.1 |
| 20260510114545 | 54 | 20 | 14.8 | 24.3 | 0.00 | 0.00 | 0.00 | 63 | 1021.0 |
| 20260510114022 | 55 | 40 | 11.3 | 16.5 | 0.00 | 0.00 | 0.00 | 61 | 1020.9 |
| 20260510113521 | 55 | 22 | 8.7 | 15.6 | 0.00 | 0.00 | 0.00 | 60 | 1020.7 |
| 20260510113036 | 55 | 24 | 9.6 | 15.6 | 0.00 | 0.00 | 0.00 | 59 | 1020.5 |
| 20260510112525 | 55 | 27 | 12.2 | 15.6 | 0.00 | 0.00 | 0.00 | 59 | 1020.3 |
| 20260510112021 | 55 | 44 | 10.4 | 15.6 | 0.00 | 0.00 | 0.00 | 60 | 1019.9 |
| 20260510111542 | 54 | 59 | 8.7 | 13.9 | 0.00 | 0.00 | 0.00 | 60 | 1019.6 |
| 20260510111021 | 54 | 54 | 9.6 | 14.8 | 0.00 | 0.00 | 0.00 | 60 | 1019.1 |
| 20260510110522 | 54 | 57 | 9.6 | 15.6 | 0.00 | 0.00 | 0.00 | 60 | 1018.8 |
| 20260510110041 | 54 | 78 | 10.4 | 15.6 | 0.00 | 0.00 | 0.00 | 60 | 1018.4 |
| 20260510105522 | 54 | 63 | 9.6 | 15.6 | 0.00 | 0.00 | 0.00 | 60 | 1018.3 |
| 20260510105022 | 54 | 71 | 10.4 | 15.6 | 0.00 | 0.00 | 0.00 | 59 | 1018.4 |
| 20260510104549 | 55 | 77 | 10.4 | 18.2 | 0.00 | 0.00 | 0.00 | 59 | 1018.6 |
| 20260510104024 | 55 | 76 | 9.6 | 18.2 | 0.00 | 0.00 | 0.00 | 59 | 1018.8 |
| 20260510103521 | 55 | 76 | 10.4 | 19.1 | 0.00 | 0.00 | 0.00 | 59 | 1018.8 |
| 20260510103038 | 55 | 63 | 12.2 | 19.1 | 0.00 | 0.00 | 0.00 | 58 | 1018.7 |
| 20260510102521 | 56 | 64 | 10.4 | 19.1 | 0.00 | 0.00 | 0.00 | 58 | 1018.9 |
| 20260510102019 | 56 | 69 | 12.2 | 20.0 | 0.00 | 0.00 | 0.00 | 58 | 1018.8 |
| 20260510101536 | 56 | 59 | 13.0 | 20.0 | 0.00 | 0.00 | 0.00 | 58 | 1018.7 |
| 20260510101022 | 56 | 51 | 13.0 | 18.2 | 0.00 | 0.00 | 0.00 | 58 | 1018.8 |
| 20260510100527 | 56 | 49 | 12.2 | 17.4 | 0.00 | 0.00 | 0.00 | 58 | 1019.1 |
| 20260510095521 | 56 | 53 | 10.4 | 16.5 | 0.00 | 0.00 | 0.00 | 59 | 1019.2 |
| 20260510095024 | 56 | 34 | 10.4 | 16.5 | 0.00 | 0.00 | 0.00 | 59 | 1019.2 |
| 20260510094553 | 56 | 51 | 10.4 | 17.4 | 0.00 | 0.00 | 0.00 | 60 | 1019.3 |
| 20260510094021 | 56 | 55 | 9.6 | 17.4 | 0.00 | 0.00 | 0.00 | 60 | 1019.0 |
| 20260510093522 | 56 | 55 | 11.3 | 17.4 | 0.00 | 0.00 | 0.00 | 60 | 1018.6 |
| 20260510093042 | 56 | 55 | 11.3 | 17.4 | 0.00 | 0.00 | 0.00 | 61 | 1018.6 |
| 20260510092522 | 56 | 74 | 10.4 | 19.1 | 0.00 | 0.00 | 0.00 | 62 | 1018.6 |
| 20260510092022 | 56 | 35 | 11.3 | 19.1 | 0.00 | 0.00 | 0.00 | 62 | 1018.3 |
| 20260510091539 | 56 | 46 | 13.9 | 20.0 | 0.00 | 0.00 | 0.00 | 62 | 1018.3 |
| 20260510091019 | 56 | 45 | 10.4 | 20.0 | 0.00 | 0.00 | 0.00 | 62 | 1018.2 |
| 20260510090522 | 56 | 44 | 13.0 | 20.9 | 0.00 | 0.00 | 0.00 | 62 | 1018.2 |
| 20260510090046 | 56 | 34 | 13.9 | 20.9 | 0.00 | 0.00 | 0.00 | 62 | 1018.2 |
| 20260510085520 | 56 | 55 | 12.2 | 19.1 | 0.00 | 0.00 | 0.00 | 62 | 1018.0 |
| 20260510085026 | 56 | 49 | 13.0 | 20.0 | 0.00 | 0.00 | 0.00 | 62 | 1018.1 |
| 20260510084544 | 56 | 59 | 13.9 | 20.0 | 0.00 | 0.00 | 0.00 | 62 | 1017.9 |
| 20260510084024 | 56 | 48 | 13.0 | 22.6 | 0.00 | 0.00 | 0.00 | 62 | 1018.0 |
| 20260510083521 | 56 | 30 | 13.9 | 22.6 | 0.00 | 0.00 | 0.00 | 62 | 1018.1 |
| 20260510083045 | 56 | 55 | 13.0 | 20.9 | 0.00 | 0.00 | 0.00 | 63 | 1018.1 |
| 20260510082521 | 56 | 50 | 13.0 | 21.7 | 0.00 | 0.00 | 0.00 | 63 | 1017.9 |
| 20260510082022 | 56 | 39 | 13.9 | 21.7 | 0.00 | 0.00 | 0.00 | 63 | 1018.1 |
| 20260510081550 | 56 | 50 | 13.9 | 20.0 | 0.00 | 0.00 | 0.00 | 64 | 1017.9 |
| 20260510081022 | 56 | 30 | 13.9 | 20.9 | 0.00 | 0.00 | 0.00 | 64 | 1017.8 |
| 20260510080522 | 56 | 32 | 13.0 | 21.7 | 0.00 | 0.00 | 0.00 | 63 | 1018.1 |
| 20260510075521 | 56 | 37 | 13.9 | 21.7 | 0.00 | 0.00 | 0.00 | 63 | 1018.0 |
| 20260510075021 | 56 | 49 | 14.8 | 20.9 | 0.00 | 0.00 | 0.00 | 63 | 1018.0 |
| 20260510074539 | 56 | 40 | 13.0 | 20.0 | 0.00 | 0.00 | 0.00 | 63 | 1017.8 |
| 20260510074021 | 57 | 46 | 13.9 | 20.0 | 0.00 | 0.00 | 0.00 | 63 | 1017.9 |
| 20260510073521 | 57 | 46 | 13.9 | 20.9 | 0.00 | 0.00 | 0.00 | 63 | 1018.0 |
| 20260510073036 | 56 | 40 | 14.8 | 21.7 | 0.00 | 0.00 | 0.00 | 64 | 1018.0 |
| 20260510072522 | 56 | 34 | 13.9 | 21.7 | 0.00 | 0.00 | 0.00 | 64 | 1017.9 |
| 20260510072022 | 56 | 46 | 14.8 | 21.7 | 0.00 | 0.00 | 0.00 | 65 | 1018.0 |
| 20260510071547 | 56 | 40 | 13.0 | 21.7 | 0.00 | 0.00 | 0.00 | 66 | 1017.9 |
| 20260510071021 | 56 | 33 | 13.9 | 20.9 | 0.00 | 0.00 | 0.00 | 67 | 1018.0 |
| 20260510070524 | 56 | 30 | 11.3 | 18.2 | 0.00 | 0.00 | 0.00 | 68 | 1018.0 |
| 20260510070050 | 56 | 66 | 12.2 | 18.2 | 0.00 | 0.00 | 0.00 | 69 | 1017.9 |
| 20260510065521 | 56 | 39 | 13.0 | 20.0 | 0.00 | 0.00 | 0.00 | 71 | 1017.9 |
| 20260510065021 | 56 | 39 | 13.0 | 20.0 | 0.00 | 0.00 | 0.00 | 72 | 1017.9 |
| 20260510064542 | 56 | 30 | 11.3 | 18.2 | 0.00 | 0.00 | 0.00 | 74 | 1017.8 |
| 20260510064021 | 56 | 26 | 11.3 | 15.6 | 0.00 | 0.00 | 0.00 | 75 | 1017.6 |
| 20260510063521 | 56 | 38 | 11.3 | 15.6 | 0.00 | 0.00 | 0.00 | 75 | 1017.4 |
| 20260510063047 | 55 | 30 | 11.3 | 14.8 | 0.00 | 0.00 | 0.00 | 75 | 1017.7 |
| 20260510062521 | 55 | 29 | 10.4 | 13.9 | 0.00 | 0.00 | 0.00 | 75 | 1017.7 |
| 20260510062026 | 55 | 5 | 9.6 | 13.9 | 0.00 | 0.00 | 0.00 | 75 | 1017.8 |
| 20260510061536 | 56 | 27 | 9.6 | 13.9 | 0.00 | 0.00 | 0.00 | 75 | 1017.2 |
| 20260510061026 | 56 | 30 | 7.8 | 13.9 | 0.00 | 0.00 | 0.00 | 75 | 1016.6 |
| 20260510060521 | 55 | 45 | 9.6 | 13.9 | 0.00 | 0.00 | 0.00 | 75 | 1016.2 |
| 20260510060036 | 55 | 62 | 8.7 | 13.0 | 0.00 | 0.00 | 0.00 | 75 | 1015.4 |
| 20260510055522 | 55 | 46 | 8.7 | 13.0 | 0.00 | 0.00 | 0.00 | 74 | 1015.3 |
| 20260510055021 | 55 | 53 | 8.7 | 13.0 | 0.00 | 0.00 | 0.00 | 74 | 1015.0 |
| 20260510054545 | 55 | 60 | 8.7 | 13.0 | 0.00 | 0.00 | 0.00 | 73 | 1015.0 |
| 20260510054022 | 56 | 54 | 9.6 | 14.8 | 0.00 | 0.00 | 0.00 | 73 | 1015.0 |
| 20260510053522 | 56 | 51 | 10.4 | 14.8 | 0.00 | 0.00 | 0.00 | 72 | 1014.8 |
| 20260510053043 | 57 | 30 | 8.7 | 11.3 | 0.00 | 0.00 | 0.00 | 71 | 1014.6 |
| 20260510052520 | 57 | 64 | 7.8 | 11.3 | 0.00 | 0.00 | 0.00 | 69 | 1014.5 |
| 20260510052023 | 58 | 58 | 7.0 | 11.3 | 0.00 | 0.00 | 0.00 | 69 | 1014.5 |
| 20260510051546 | 58 | 69 | 7.8 | 10.4 | 0.00 | 0.00 | 0.00 | 69 | 1014.3 |
| 20260510051022 | 58 | 76 | 6.1 | 10.4 | 0.00 | 0.00 | 0.00 | 68 | 1014.4 |
| 20260510050521 | 58 | 68 | 7.8 | 11.3 | 0.00 | 0.00 | 0.00 | 69 | 1014.4 |
| 20260510050042 | 58 | 73 | 7.0 | 11.3 | 0.00 | 0.00 | 0.00 | 68 | 1014.1 |
| 20260510045524 | 58 | 63 | 7.0 | 10.4 | 0.00 | 0.00 | 0.00 | 67 | 1014.0 |
| 20260510045025 | 59 | 80 | 7.0 | 11.3 | 0.00 | 0.00 | 0.00 | 66 | 1014.1 |
| 20260510044540 | 59 | 70 | 7.8 | 11.3 | 0.00 | 0.00 | 0.00 | 66 | 1014.2 |
| 20260510044024 | 60 | 79 | 7.8 | 11.3 | 0.00 | 0.00 | 0.00 | 65 | 1014.1 |
| 20260510043522 | 60 | 80 | 7.0 | 10.4 | 0.00 | 0.00 | 0.00 | 64 | 1013.9 |
| 20260510043050 | 61 | 83 | 7.0 | 12.2 | 0.00 | 0.00 | 0.00 | 63 | 1013.7 |
| 20260510042522 | 61 | 91 | 7.8 | 13.9 | 0.00 | 0.00 | 0.00 | 62 | 1013.7 |
| 20260510042021 | 61 | 101 | 8.7 | 15.6 | 0.00 | 0.00 | 0.00 | 61 | 1013.5 |
| 20260510041540 | 62 | 110 | 8.7 | 15.6 | 0.00 | 0.00 | 0.00 | 60 | 1013.5 |
| 20260510041022 | 62 | 111 | 11.3 | 15.6 | 0.00 | 0.00 | 0.00 | 60 | 1013.5 |
| 20260510040523 | 61 | 113 | 8.7 | 13.9 | 0.00 | 0.00 | 0.00 | 61 | 1013.3 |
| 20260510040056 | 62 | 90 | 6.1 | 11.3 | 0.00 | 0.00 | 0.00 | 60 | 1013.3 |
| 20260510035521 | 63 | 103 | 7.0 | 15.6 | 0.00 | 0.00 | 0.00 | 58 | 1013.2 |
| 20260510035021 | 64 | 108 | 8.7 | 15.6 | 0.00 | 0.00 | 0.00 | 57 | 1013.1 |
| 20260510034545 | 64 | 123 | 10.4 | 15.6 | 0.00 | 0.00 | 0.00 | 57 | 1013.2 |
| 20260510034022 | 63 | 130 | 9.6 | 13.9 | 0.00 | 0.00 | 0.00 | 59 | 1012.8 |
| 20260510033522 | 62 | 119 | 7.0 | 11.3 | 0.00 | 0.00 | 0.00 | 61 | 1012.7 |
| 20260510033053 | 63 | 104 | 6.1 | 14.8 | 0.00 | 0.00 | 0.00 | 60 | 1012.4 |
| 20260510032521 | 63 | 87 | 9.6 | 15.6 | 0.00 | 0.00 | 0.00 | 59 | 1012.0 |
| 20260510032021 | 64 | 74 | 9.6 | 15.6 | 0.00 | 0.00 | 0.00 | 59 | 1012.0 |
| 20260510031539 | 64 | 61 | 9.6 | 14.8 | 0.00 | 0.00 | 0.00 | 59 | 1011.6 |
| 20260510031022 | 64 | 67 | 10.4 | 15.6 | 0.00 | 0.00 | 0.00 | 59 | 1011.5 |
| 20260510030521 | 64 | 58 | 9.6 | 18.2 | 0.00 | 0.00 | 0.00 | 57 | 1011.2 |
| 20260510030046 | 65 | 35 | 12.2 | 20.0 | 0.00 | 0.00 | 0.00 | 56 | 1011.1 |
| 20260510025522 | 65 | 43 | 13.0 | 20.0 | 0.00 | 0.00 | 0.00 | 55 | 1010.9 |
| 20260510025023 | 65 | 17 | 13.0 | 19.1 | 0.00 | 0.00 | 0.00 | 54 | 1010.7 |
| 20260510024538 | 66 | 42 | 13.0 | 19.1 | 0.00 | 0.00 | 0.00 | 53 | 1010.6 |
| 20260510024022 | 66 | 360 | 12.2 | 19.1 | 0.00 | 0.00 | 0.00 | 52 | 1010.5 |
| 20260510023522 | 67 | 13 | 13.0 | 18.2 | 0.00 | 0.00 | 0.00 | 51 | 1010.3 |
| 20260510023040 | 67 | 10 | 12.2 | 18.2 | 0.00 | 0.00 | 0.00 | 49 | 1010.3 |
| 20260510022525 | 68 | 5 | 12.2 | 19.1 | 0.00 | 0.00 | 0.00 | 48 | 1010.2 |
| 20260510022022 | 69 | 22 | 13.0 | 19.1 | 0.00 | 0.00 | 0.00 | 46 | 1010.0 |
| 20260510021538 | 70 | 15 | 13.0 | 19.1 | 0.00 | 0.00 | 0.00 | 44 | 1009.9 |
| 20260510021023 | 71 | 9 | 13.0 | 16.5 | 0.00 | 0.00 | 0.00 | 40 | 1009.5 |
| 20260510020525 | 72 | 9 | 10.4 | 13.9 | 0.00 | 0.00 | 0.00 | 35 | 1009.4 |
| 20260510020047 | 72 | 360 | 8.7 | 13.0 | 0.00 | 0.00 | 0.00 | 33 | 1009.4 |
| 20260510015522 | 72 | 347 | 7.0 | 10.4 | 0.00 | 0.00 | 0.00 | 34 | 1009.2 |
| 20260510015021 | 73 | 335 | 5.2 | 10.4 | 0.00 | 0.00 | 0.00 | 32 | 1008.8 |
| 20260510014546 | 74 | 350 | 7.0 | 10.4 | 0.00 | 0.00 | 0.00 | 31 | 1008.9 |
| 20260510014023 | 75 | 360 | 7.0 | 10.4 | 0.00 | 0.00 | 0.00 | 31 | 1008.6 |
| 20260510013523 | 75 | 346 | 7.8 | 10.4 | 0.00 | 0.00 | 0.00 | 30 | 1008.5 |
| 20260510013042 | 76 | 332 | 7.0 | 11.3 | 0.00 | 0.00 | 0.00 | 30 | 1008.4 |
| 20260510012522 | 77 | 336 | 7.0 | 12.2 | 0.00 | 0.00 | 0.00 | 29 | 1008.5 |
| 20260510012026 | 78 | 336 | 7.8 | 12.2 | 0.00 | 0.00 | 0.00 | 28 | 1008.2 |
| 20260510011544 | 79 | 338 | 8.7 | 13.9 | 0.00 | 0.00 | 0.00 | 27 | 1008.1 |
| 20260510011021 | 79 | 349 | 8.7 | 15.6 | 0.00 | 0.00 | 0.00 | 26 | 1008.0 |
| 20260510010522 | 80 | 349 | 9.6 | 16.5 | 0.00 | 0.00 | 0.00 | 25 | 1007.8 |
| 20260510010040 | 81 | 345 | 11.3 | 16.5 | 0.00 | 0.00 | 0.00 | 24 | 1007.6 |
| 20260510005522 | 82 | 352 | 11.3 | 16.5 | 0.00 | 0.00 | 0.00 | 24 | 1007.6 |
| 20260510005024 | 82 | 12 | 10.4 | 20.0 | 0.00 | 0.00 | 0.00 | 23 | 1007.6 |
| 20260510004539 | 83 | 11 | 13.0 | 20.0 | 0.00 | 0.00 | 0.00 | 23 | 1007.7 |
| 20260510004021 | 83 | 352 | 13.0 | 20.0 | 0.00 | 0.00 | 0.00 | 23 | 1007.7 |
| 20260510003522 | 84 | 352 | 13.9 | 20.0 | 0.00 | 0.00 | 0.00 | 22 | 1007.6 |
| 20260510003045 | 84 | 351 | 13.0 | 17.4 | 0.00 | 0.00 | 0.00 | 22 | 1007.7 |
| 20260510002522 | 85 | 323 | 11.3 | 16.5 | 0.00 | 0.00 | 0.00 | 22 | 1007.5 |
| 20260510002022 | 85 | 342 | 7.0 | 15.6 | 0.00 | 0.00 | 0.00 | 22 | 1007.5 |
| 20260510001544 | 85 | 337 | 9.6 | 18.2 | 0.00 | 0.00 | 0.00 | 22 | 1007.6 |
| 20260510001022 | 86 | 352 | 11.3 | 18.2 | 0.00 | 0.00 | 0.00 | 21 | 1007.5 |
| 20260510000522 | 86 | 5 | 11.3 | 16.5 | 0.00 | 0.00 | 0.00 | 20 | 1007.4 |
| 20260510000100 | 86 | 360 | 7.8 | 13.0 | 0.00 | 0.00 | 0.00 | 20 | 1007.4 |
| 20260509235526 | 86 | 335 | 8.7 | 16.5 | 0.00 | 0.00 | 0.00 | 20 | 1007.3 |
| 20260509235024 | 87 | 330 | 10.4 | 16.5 | 0.00 | 0.00 | 0.00 | 20 | 1007.4 |
| 20260509234553 | 87 | 334 | 9.6 | 14.8 | 0.00 | 0.00 | 0.00 | 20 | 1007.5 |
| 20260509234022 | 87 | 315 | 8.7 | 18.2 | 0.00 | 0.00 | 0.00 | 19 | 1007.3 |
| 20260509233526 | 87 | 319 | 11.3 | 18.2 | 0.00 | 0.00 | 0.00 | 19 | 1007.4 |
| 20260509233046 | 87 | 337 | 9.6 | 14.8 | 0.00 | 0.00 | 0.00 | 19 | 1007.6 |
| 20260509232525 | 87 | 328 | 9.6 | 16.5 | 0.00 | 0.00 | 0.00 | 18 | 1007.6 |
| 20260509232022 | 87 | 325 | 11.3 | 16.5 | 0.00 | 0.00 | 0.00 | 19 | 1007.5 |
| 20260509231544 | 88 | 5 | 9.6 | 15.6 | 0.00 | 0.00 | 0.00 | 20 | 1007.6 |
| 20260509231022 | 88 | 352 | 11.3 | 15.6 | 0.00 | 0.00 | 0.00 | 19 | 1007.6 |
| 20260509230524 | 88 | 5 | 7.8 | 17.4 | 0.00 | 0.00 | 0.00 | 19 | 1007.5 |
| 20260509230044 | 88 | 331 | 8.7 | 17.4 | 0.00 | 0.00 | 0.00 | 19 | 1007.6 |
| 20260509225522 | 88 | 5 | 5.2 | 17.4 | 0.00 | 0.00 | 0.00 | 19 | 1007.7 |
| 20260509225018 | 86 | 47 | 7.0 | 17.4 | 0.00 | 0.00 | 0.00 | 21 | 1007.5 |
| 20260509224542 | 85 | 213 | 7.8 | 18.2 | 0.00 | 0.00 | 0.00 | 24 | 1007.7 |
| 20260509224021 | 86 | 219 | 8.7 | 18.2 | 0.00 | 0.00 | 0.00 | 24 | 1007.7 |
| 20260509223522 | 86 | 282 | 11.3 | 18.2 | 0.00 | 0.00 | 0.00 | 23 | 1007.5 |
| 20260509223043 | 87 | 204 | 9.6 | 18.2 | 0.00 | 0.00 | 0.00 | 23 | 1007.2 |
| 20260509222522 | 87 | 179 | 10.4 | 18.2 | 0.00 | 0.00 | 0.00 | 26 | 1007.0 |
| 20260509222022 | 86 | 197 | 11.3 | 18.2 | 0.00 | 0.00 | 0.00 | 26 | 1007.0 |
| 20260509221540 | 84 | 168 | 12.2 | 18.2 | 0.00 | 0.00 | 0.00 | 29 | 1006.9 |
| 20260509221022 | 82 | 198 | 13.0 | 17.4 | 0.00 | 0.00 | 0.00 | 28 | 1006.9 |